Location: ????????
(54.6123°N, 39.2099°E)
Time: 06:21:58
(UTC+00:00)

CZ-4C R/B - Pass Details

Date: 19 May 2025
Orbit: 425 x 537 km, 98.0° (Epoch: 15 June)

Event Time Altitude Azimuth Distance (km) Brightness Sun altitude
Rises 19:38:30 0° 19° (NNE) 2,626 7.6 -12.4°
Reaches altitude 10° 19:40:42 10° 25° (NNE) 1,716 6.4 -12.5°
Maximum altitude 19:44:16 46° 100° (E) 663 3.5 -12.7°
Enters shadow 19:46:16 22° 164° (SSE) 1,095 4.2 -12.8°
